Regional Weather Roundup
Issued by NWS State College, PA

Home | Current Version | Previous Version | Graphics & Text | Print | Product List | Glossary On
Versions: 1 2 3 4 5 6 7 8 9 10 11 12 13 14 15 16 17 18 19 20 21 22 23 24 25 26 27 28 29 30 31 32 33 34 35 36 37 38 39 40 41 42 43 44 45 46 47 48 49 50
000
ASUS41 KCTP 100310
RWRCTP

REGIONAL WEATHER ROUNDUP
NATIONAL WEATHER SERVICE STATE COLLEGE PA
1000 PM EST FRI DEC 09 2016

Note: "fair" indicates few or no clouds below 12,000 feet with no
significant weather and/or obstructions to visibility.

* = STATION THAT DOES NOT REPORT PRECIPITATION /E.G. RAIN...SNOW...ETC/
    THUNDER OR FOG.

PAZ002>004-007>009-013>016-020>023-029>032-100400-
WESTERN PENNSYLVANIA

CITY           SKY/WX    TMP DP  RH WIND       PRES   REMARKS
ERIE           CLOUDY    29  21  72 SW10      30.34R
MEADVILLE      LGT SNOW  23  19  85 SW9       30.32S FOG     WCI  13
FRANKLIN*        N/A     21  16  79 SW9       30.33F WCI  11
NEW CASTLE     CLOUDY    25  20  81 SW9       30.39S
BEAVER COUNTY  NOT AVBL
BUTLER*        CLOUDY    25  16  68 W10       30.40S WCI  15
PITTSBURGH INT PTCLDY    25  19  78 W7        30.39S
PITTSBURGH     PTCLDY    22  15  75 W9        30.38S WCI  12
INDIANA*       CLOUDY    25  18  74 W13G18    30.38R WCI  13
LATROBE        MOCLDY    25  18  74 W14       30.40S WCI  13
WASHINGTON CO* CLOUDY    23  18  80 SW7       30.41S WCI  15
$$

PAZ004>006-010>012-017>019-024>028-033>037-041-042-045-046-049>053-100400-
CENTRAL PENNSYLVANIA

CITY           SKY/WX    TMP DP  RH WIND       PRES   REMARKS
BRADFORD       LGT SNOW  21  19  92 W6        30.23S FOG     WCI  13
DUBOIS         CLOUDY    22  17  81 W16       30.28S HAZE    WCI   8
CLEARFIELD     FLURRIES  24  19  81 W10       30.30S WCI  14
JOHNSTOWN      CLOUDY    20  15  81 W14G25    30.27S WCI   7
ALTOONA        MOCLDY    25  16  68 NW12G23   30.32F WCI  14
STATE COLLEGE  NOT AVBL
WILLIAMSPORT   CLOUDY    29  25  85 CALM      30.30S
SELINSGROVE    CLOUDY    30  22  72 VRB5      30.33S
FT INDIANTOWN  PTCLDY    30  17  57 W9G17     30.32S
CAPITAL CITY   CLEAR     29  17  61 W12       30.34F
HARRISBURG     PTCLDY    30  19  63 W8        30.34F
YORK           CLEAR     26  17  68 W6        30.35S
$$

PAZ038>040-043-044-047-048-054-055-060>062-067>071-100400-
EASTERN PENNSYLVANIA

CITY           SKY/WX    TMP DP  RH WIND       PRES   REMARKS
SCRANTON       PTCLDY    24  15  68 SW5       30.26R
MOUNT POCONO   CLEAR     19  12  74 W10       30.18R WCI   7
ALLENTOWN      CLEAR     27  19  72 W6        30.31R
QUAKERTOWN*    CLEAR     28  23  80 W3        30.31S
READING        CLOUDY    31  20  63 NW8       30.31F
LANCASTER      PTCLDY    28  20  71 W10       30.33F
COATESVILLE    PTCLDY    28  19  69 W13       30.32F
POTTSTOWN      PTCLDY    29  19  66 W8        30.33S
BLUE BELL      PTCLDY    30  21  69 CALM      30.31F
DOYLESTOWN     CLEAR     30  22  72 W6        30.30S
WILLOW GROVE   NOT AVBL
NORTH PHILA    NOT AVBL
PHILADELPHIA   PTCLDY    32  18  56 W9        30.35S
$$



USA.gov is the U.S. government's official web portal to all federal, state and local government web resources and services.